Regional Weather Roundup
Issued by NWS

Home | Current Version | Previous Version | Graphics & Text | Print | Product List | Glossary On
Versions: 1 2 3 4 5 6 7 8 9 10 11 12 13 14 15 16 17 18 19 20 21 22 23 24 25 26 27 28 29 30 31 32 33 34 35 36 37 38 39 40 41 42 43 44 45 46 47 48 49 50
000
ASUS43 KLMK 201810
RWRKY
KENTUCKY REGIONAL WEATHER ROUNDUP
NATIONAL WEATHER SERVICE LOUISVILLE KY
200 PM EDT WED AUG 20 2014

NOTE "FAIR" INDICATES FEW OR NO CLOUDS BELOW 12,000 FEET
WITH NO SIGNIFICANT WEATHER AND/OR OBSTRUCTIONS TO VISIBILITY.

KYZ001>023-026-027-061>063-070>075-201900-
WESTERN AND SOUTH CENTRAL KENTUCKY

CITY           SKY/WX    TMP DP  RH WIND       PRES   REMARKS
PADUCAH        PTSUNNY   92  75  57 W8        29.99R HX 103
HENDERSON      CLOUDY    88  77  70 W5        29.97R HX 100
OWENSBORO      CLOUDY    87  76  69 SW5       29.98S HX  97
HOPKINSVILLE   PTSUNNY   93  74  53 W9        29.99S HX 102
BOWLING GREEN  CLOUDY    90  75  61 W9        30.00R HX 100
GLASGOW        PTSUNNY   86  75  68 SW6       30.01R HX  95
$$

KYZ024-025-028>034-038-045-046-053-201900-
NORTH CENTRAL KENTUCKY

CITY           SKY/WX    TMP DP  RH WIND       PRES   REMARKS
LOUISVILLE/SDF PTSUNNY   89  73  59 W8        29.97R HX  97
LOUISVILLE/LOU MOSUNNY   88  71  57 W9        29.97S HX  94
FORT KNOX      PTSUNNY   88  75  66 SW10      29.98R HX  98
$$

KYZ035>037-039>044-047>052-055>060-089>105-201900-
NORTHEAST KENTUCKY

CITY           SKY/WX    TMP DP  RH WIND       PRES   REMARKS
LEXINGTON      PTSUNNY   87  73  62 W5        30.00S HX  94
COVINGTON      PTSUNNY   85  67  54 W9        29.97F
FRANKFORT      MOSUNNY   87  71  58 VRB6      29.98R HX  93
$$

KYZ054-064>069-076>088-106>120-201900-
SOUTHEAST KENTUCKY

CITY           SKY/WX    TMP DP  RH WIND       PRES   REMARKS
JACKSON        MOSUNNY   82  71  69 VRB3      30.04S
LONDON         MOSUNNY   87  72  60 W9        30.03S HX  93
SOMERSET       MOSUNNY   86  72  62 W7        30.03R HX  92
MIDDLESBORO    PTSUNNY   83  73  70 S7        30.03F
MONTICELLO     PTCLDY    89  76  65 SW7       30.03S HX 100
$$




USA.gov is the U.S. government's official web portal to all federal, state and local government web resources and services.